[[{"header":{"parameterUnit":"m.s-1","parameterCategory":2,"la1":30.2992,"la2":30.254,"lo1":-89.0895,"lo2":-89.0443,"dy":0.0025,"dx":0.0025,"nx":19,"ny":19,"refTime":"2026-05-14T09:00:00:Z","depth":"0","parameterNumber":2,"parameterNumberName":"U-component_of_CURRENTS"},"data":[0,0,0,-0.1998,-0.1998,-0.2003,-0.2003,-0.201,-0.201,0,0,0,0,0,0,0,0,0,0,0,-0.1989,-0.1989,-0.1998,-0.1998,-0.2003,-0.2003,-0.201,-0.201,0,0,0,0,0,0,0,0,0,0,0,-0.1989,-0.1989,-0.1989,-0.1998,-0.2003,-0.2003,-0.201,-0.2007,0,0,0,0,0,0,0,0,0,0,-0.2002,-0.1988,-0.1989,-0.1989,-0.1998,-0.2003,-0.2003,-0.2006,-0.2007,-0.2008,0,-0.2002,0,-0.2009,-0.2011,-0.2011,0,0,0,-0.1999,-0.1988,-0.1995,-0.1989,-0.1998,-0.2003,-0.2001,-0.2007,-0.2007,-0.2009,-0.2003,-0.2003,-0.2009,-0.2011,-0.2011,-0.2025,-0.2025,0,0,-0.1999,-0.1986,-0.1995,-0.1995,-0.1991,-0.2001,-0.2001,-0.2007,-0.2,-0.2003,-0.2003,-0.2009,-0.2011,-0.2011,-0.2025,-0.2025,0,0,0,-0.1997,-0.1986,-0.1993,-0.1994,-0.1997,-0.2001,-0.2001,-0.2,-0.2003,-0.2004,-0.201,-0.2011,-0.2011,-0.2025,-0.2025,-0.2037,0,0,0,-0.1997,-0.1986,-0.1993,-0.1985,-0.1996,-0.1997,-0.1994,-0.2003,-0.2004,-0.2009,-0.2011,-0.2011,-0.2024,-0.2025,-0.2036,-0.2046,0,0,0,-0.199,-0.1985,-0.1984,-0.1984,-0.1988,-0.1997,-0.2001,-0.2003,-0.2008,-0.2011,-0.2011,-0.2024,-0.2025,-0.2036,-0.2045,-0.2054,0,0,0,-0.1981,-0.1966,-0.1983,-0.1976,-0.1988,-0.2005,-0.2001,-0.2007,-0.201,-0.2011,-0.2024,-0.2025,-0.2035,-0.2044,-0.2053,-0.2039,-0.2041,0,0,-0.1958,-0.1963,-0.1963,-0.1978,-0.1998,-0.2005,-0.2022,-0.202,-0.2015,-0.2022,-0.2023,-0.2036,-0.2044,-0.2054,-0.2053,-0.2054,0,0,0,-0.1954,-0.1954,-0.1962,-0.1978,-0.1998,-0.2022,-0.2027,-0.2028,-0.2031,-0.2017,-0.2038,-0.2043,-0.2048,-0.2038,-0.2039,-0.1983,-0.2026,-0.2026,-0.2026,-0.1907,-0.1938,-0.1945,-0.1983,-0.2003,-0.2034,-0.2048,-0.2051,-0.2043,-0.2045,-0.2053,-0.207,-0.206,-0.2061,-0.2003,-0.2052,-0.2052,-0.2052,-0.2052,-0.1881,-0.188,-0.1938,-0.1952,-0.2,-0.202,-0.2064,-0.2066,-0.2082,-0.2068,-0.2072,-0.2052,-0.2063,-0.2,-0.2053,-0.2053,-0.2053,-0.2053,-0.2053,-0.1841,-0.1841,-0.1868,-0.191,-0.1954,-0.2007,-0.2051,-0.208,-0.2089,-0.2101,-0.2084,-0.2083,-0.2028,-0.2098,-0.2098,-0.2098,-0.2098,-0.2098,-0.2098,-0.1769,-0.1801,-0.1807,-0.1863,-0.1896,-0.1955,-0.2039,-0.2069,-0.2097,-0.21,-0.21,-0.2026,-0.2084,-0.2082,-0.21,-0.2099,-0.2099,-0.2099,-0.2099,-0.1684,-0.171,-0.1718,-0.1746,-0.1832,-0.187,-0.1984,-0.205,-0.2088,-0.209,-0.203,-0.21,-0.2095,-0.2094,-0.2091,-0.2111,-0.2111,-0.2111,-0.2111,-0.1615,-0.1633,-0.1624,-0.1658,-0.1729,-0.182,-0.1862,-0.1947,-0.1995,-0.1991,-0.2003,-0.1977,-0.1979,-0.1967,-0.1968,-0.1962,-0.1948,-0.1948,-0.1948,-0.1549,-0.1562,-0.1523,-0.1575,-0.1666,-0.1747,-0.1752,-0.1793,-0.1881,-0.1936,-0.1927,-0.1934,-0.1891,-0.1898,-0.1874,-0.188,-0.1869,0,0]},{"header":{"parameterUnit":"m.s-1","parameterCategory":2,"la1":30.2992,"la2":30.254,"lo1":-89.0895,"lo2":-89.0443,"dy":0.0025,"dx":0.0025,"nx":19,"ny":19,"refTime":"2026-05-14T09:00:00:Z","depth":"0","parameterNumber":3,"parameterNumberName":"V-component_of_CURRENTS"},"data":[0,0,0,-0.058,-0.0579,-0.0522,-0.0522,-0.0481,-0.0481,0,0,0,0,0,0,0,0,0,0,0,-0.0598,-0.0598,-0.058,-0.0579,-0.0522,-0.0522,-0.0481,-0.0481,0,0,0,0,0,0,0,0,0,0,0,-0.0598,-0.0598,-0.0597,-0.0579,-0.0522,-0.0522,-0.0481,-0.0515,0,0,0,0,0,0,0,0,0,0,-0.0566,-0.0584,-0.0598,-0.0597,-0.0579,-0.0522,-0.0522,-0.0517,-0.0513,-0.0518,0,-0.0507,0,-0.0497,-0.0479,-0.0479,0,0,0,-0.0575,-0.0587,-0.0568,-0.0597,-0.0578,-0.0522,-0.0547,-0.0514,-0.0511,-0.0514,-0.0507,-0.0505,-0.0496,-0.0479,-0.0479,-0.0486,-0.0486,0,0,-0.0578,-0.0591,-0.057,-0.0565,-0.0562,-0.0548,-0.0545,-0.0512,-0.051,-0.0507,-0.0504,-0.0495,-0.0479,-0.0479,-0.0486,-0.0486,0,0,0,-0.059,-0.0594,-0.0575,-0.0567,-0.0556,-0.0547,-0.0543,-0.0512,-0.0504,-0.0503,-0.0495,-0.0479,-0.0479,-0.0485,-0.0486,-0.0519,0,0,0,-0.0592,-0.06,-0.0576,-0.0584,-0.0557,-0.053,-0.0544,-0.0506,-0.0502,-0.0495,-0.0479,-0.0478,-0.0485,-0.0486,-0.0518,-0.0527,0,0,0,-0.0601,-0.0602,-0.0594,-0.0585,-0.0561,-0.053,-0.0521,-0.0505,-0.0498,-0.0479,-0.0478,-0.0485,-0.0485,-0.0516,-0.0525,-0.0532,0,0,0,-0.0618,-0.0601,-0.0594,-0.0581,-0.0562,-0.0544,-0.052,-0.0503,-0.0489,-0.0479,-0.0485,-0.0486,-0.0516,-0.0524,-0.0531,-0.0666,-0.0682,0,0,-0.0605,-0.06,-0.0594,-0.0586,-0.0577,-0.0552,-0.0552,-0.0521,-0.0502,-0.0497,-0.0496,-0.0518,-0.0525,-0.0531,-0.07,-0.0716,0,0,0,-0.0597,-0.0599,-0.0593,-0.0588,-0.0571,-0.0569,-0.0543,-0.0535,-0.0523,-0.0496,-0.0521,-0.0524,-0.0527,-0.0607,-0.0619,-0.0535,-0.0488,-0.0488,-0.0488,-0.06,-0.0599,-0.0609,-0.0611,-0.0601,-0.0583,-0.0578,-0.0565,-0.0547,-0.055,-0.0554,-0.0585,-0.0671,-0.0682,-0.0593,-0.0559,-0.0559,-0.0559,-0.0559,-0.0625,-0.0644,-0.0647,-0.0659,-0.065,-0.0649,-0.0626,-0.0609,-0.0603,-0.0586,-0.0587,-0.0642,-0.0697,-0.0598,-0.0562,-0.0561,-0.0561,-0.0561,-0.0561,-0.066,-0.067,-0.0683,-0.0717,-0.0722,-0.0704,-0.0722,-0.068,-0.0634,-0.0634,-0.0711,-0.0712,-0.0622,-0.0636,-0.0636,-0.0636,-0.0636,-0.0636,-0.0636,-0.0692,-0.0705,-0.0756,-0.0783,-0.0808,-0.082,-0.0783,-0.0776,-0.077,-0.0757,-0.0758,-0.0637,-0.0607,-0.06,-0.0638,-0.0637,-0.0637,-0.0637,-0.0637,-0.0727,-0.0748,-0.0824,-0.0868,-0.0941,-0.1015,-0.096,-0.0984,-0.0943,-0.0966,-0.0805,-0.0821,-0.0819,-0.0811,-0.0809,-0.0897,-0.0897,-0.0897,-0.0897,-0.0754,-0.0771,-0.0882,-0.0972,-0.1057,-0.1105,-0.1242,-0.1255,-0.1095,-0.1008,-0.086,-0.0866,-0.0859,-0.0856,-0.0847,-0.0844,-0.0939,-0.0938,-0.0938,-0.078,-0.0815,-0.0896,-0.0997,-0.1107,-0.1223,-0.1403,-0.1464,-0.1179,-0.0921,-0.0709,-0.0708,-0.0693,-0.0689,-0.0665,-0.0659,-0.0647,0,0]}],[{"header":{"parameterUnit":"m.s-1","parameterCategory":2,"la1":30.2992,"la2":30.254,"lo1":-89.0895,"lo2":-89.0443,"dy":0.0025,"dx":0.0025,"nx":19,"ny":19,"refTime":"2026-05-14T09:00:00:Z","depth":"2","parameterNumber":2,"parameterNumberName":"U-component_of_CURRENTS"},"data":[0,0,0,-0.1945,-0.1946,-0.1952,-0.1952,-0.1964,-0.1964,0,0,0,0,0,0,0,0,0,0,0,-0.1935,-0.1935,-0.1945,-0.1946,-0.1952,-0.1952,-0.1964,-0.1964,0,0,0,0,0,0,0,0,0,0,0,-0.1935,-0.1935,-0.1935,-0.1946,-0.1952,-0.1952,-0.1964,-0.1958,0,0,0,0,0,0,0,0,0,0,-0.1951,-0.1939,-0.1935,-0.1935,-0.1946,-0.1952,-0.1952,-0.1958,-0.1958,-0.1961,0,-0.1955,0,-0.1963,-0.1965,-0.1965,0,0,0,-0.1946,-0.1938,-0.1943,-0.1935,-0.1946,-0.1952,-0.1949,-0.1958,-0.1959,-0.1962,-0.1956,-0.1956,-0.1964,-0.1965,-0.1965,-0.199,-0.199,0,0,-0.1946,-0.1935,-0.1943,-0.1944,-0.1939,-0.1949,-0.1949,-0.1958,-0.1953,-0.1956,-0.1957,-0.1964,-0.1965,-0.1965,-0.199,-0.199,0,0,0,-0.1944,-0.1935,-0.194,-0.1943,-0.1946,-0.1949,-0.195,-0.1953,-0.1955,-0.1957,-0.1964,-0.1965,-0.1965,-0.199,-0.199,-0.1998,0,0,0,-0.1944,-0.1934,-0.1939,-0.1933,-0.1945,-0.1949,-0.1944,-0.1954,-0.1956,-0.1964,-0.1965,-0.1965,-0.199,-0.199,-0.1997,-0.2005,0,0,0,-0.1936,-0.1934,-0.1932,-0.1933,-0.1937,-0.1949,-0.1952,-0.1955,-0.196,-0.1965,-0.1965,-0.199,-0.199,-0.1996,-0.2004,-0.1997,0,0,0,-0.1929,-0.1918,-0.1932,-0.1929,-0.1937,-0.1959,-0.1952,-0.1959,-0.1963,-0.1965,-0.199,-0.199,-0.1996,-0.2004,-0.1996,-0.1849,-0.1839,0,0,-0.1913,-0.1916,-0.1918,-0.1931,-0.1952,-0.1958,-0.1979,-0.1974,-0.1972,-0.1986,-0.1987,-0.1997,-0.2004,-0.1997,-0.1876,-0.1864,0,0,0,-0.1913,-0.1913,-0.1922,-0.1938,-0.1959,-0.1981,-0.1985,-0.1988,-0.1994,-0.1977,-0.2004,-0.2009,-0.2003,-0.1914,-0.1906,-0.1992,-0.1992,-0.1992,-0.1992,-0.1875,-0.1903,-0.1913,-0.1947,-0.1967,-0.1996,-0.2007,-0.2014,-0.2009,-0.2013,-0.202,-0.2028,-0.1933,-0.1925,-0.2023,-0.2023,-0.2023,-0.2023,-0.2023,-0.1858,-0.1857,-0.191,-0.1927,-0.1968,-0.1991,-0.203,-0.2029,-0.2041,-0.2038,-0.2032,-0.1933,-0.1916,-0.2024,-0.2024,-0.2024,-0.2024,-0.2024,-0.2024,-0.1821,-0.1822,-0.1849,-0.1889,-0.1936,-0.1984,-0.1988,-0.2045,-0.2046,-0.2051,-0.1937,-0.1935,-0.2024,-0.204,-0.204,-0.204,-0.204,-0.204,-0.204,-0.1754,-0.1786,-0.1789,-0.1851,-0.187,-0.1903,-0.1976,-0.1952,-0.1937,-0.1937,-0.1935,-0.2033,-0.2033,-0.2025,-0.204,-0.204,-0.204,-0.204,-0.204,-0.1673,-0.1697,-0.1696,-0.1709,-0.1741,-0.1706,-0.1794,-0.1743,-0.1764,-0.1714,-0.1862,-0.1866,-0.1847,-0.1852,-0.184,-0.1806,-0.1806,-0.1806,-0.1806,-0.1604,-0.1623,-0.1584,-0.1574,-0.1551,-0.1596,-0.1468,-0.148,-0.1564,-0.1582,-0.1592,-0.1548,-0.1562,-0.1526,-0.1538,-0.152,-0.1403,-0.1402,-0.1402,-0.1537,-0.1541,-0.1471,-0.1476,-0.1454,-0.1402,-0.1314,-0.1219,-0.117,-0.139,-0.1564,-0.1771,-0.1731,-0.1743,-0.1709,-0.172,-0.17,0,0]},{"header":{"parameterUnit":"m.s-1","parameterCategory":2,"la1":30.2992,"la2":30.254,"lo1":-89.0895,"lo2":-89.0443,"dy":0.0025,"dx":0.0025,"nx":19,"ny":19,"refTime":"2026-05-14T09:00:00:Z","depth":"2","parameterNumber":3,"parameterNumberName":"V-component_of_CURRENTS"},"data":[0,0,0,-0.0235,-0.0234,-0.0165,-0.0165,-0.0031,-0.003,0,0,0,0,0,0,0,0,0,0,0,-0.0262,-0.0262,-0.0235,-0.0234,-0.0165,-0.0165,-0.0031,-0.003,0,0,0,0,0,0,0,0,0,0,0,-0.0262,-0.0262,-0.0262,-0.0234,-0.0165,-0.0165,-0.0031,-0.0089,0,0,0,0,0,0,0,0,0,0,-0.0159,-0.0208,-0.0262,-0.0262,-0.0234,-0.0165,-0.0164,-0.0092,-0.0085,-0.0057,0,-0.0066,0,-0.0053,-0.0022,-0.0022,0,0,0,-0.021,-0.0213,-0.0191,-0.0262,-0.0234,-0.0166,-0.019,-0.0088,-0.0081,-0.0048,-0.0064,-0.0059,-0.0051,-0.0021,-0.0021,-0.002,-0.0021,0,0,-0.0214,-0.0245,-0.0197,-0.0187,-0.0241,-0.0192,-0.0188,-0.0084,-0.0088,-0.0064,-0.0056,-0.0049,-0.002,-0.002,-0.0019,-0.002,0,0,0,-0.0241,-0.0248,-0.0228,-0.0192,-0.0188,-0.0191,-0.0186,-0.0093,-0.0086,-0.0055,-0.0047,-0.002,-0.0018,-0.0018,-0.002,-0.0064,0,0,0,-0.0242,-0.0265,-0.0231,-0.0247,-0.0191,-0.0148,-0.0197,-0.0093,-0.0081,-0.0048,-0.002,-0.0017,-0.0017,-0.0019,-0.006,-0.007,0,0,0,-0.0261,-0.0267,-0.0266,-0.0249,-0.0229,-0.015,-0.0136,-0.009,-0.0077,-0.0021,-0.0017,-0.0017,-0.0019,-0.0057,-0.0066,-0.0013,0,0,0,-0.0282,-0.0287,-0.0267,-0.0271,-0.023,-0.0204,-0.0137,-0.0109,-0.0071,-0.0019,-0.0018,-0.002,-0.0056,-0.0063,-0.0011,0.0023,0.002,0,0,-0.0294,-0.029,-0.0289,-0.0269,-0.0262,-0.021,-0.0196,-0.0121,-0.0093,-0.0041,-0.0041,-0.0061,-0.0066,-0.0012,-0.0097,-0.0096,0,0,0,-0.0296,-0.0307,-0.0298,-0.0294,-0.0263,-0.0241,-0.0179,-0.015,-0.012,-0.0085,-0.0091,-0.0093,-0.0057,-0.0036,-0.0036,-0.0029,-0.0029,-0.0029,-0.0029,-0.0345,-0.0328,-0.0342,-0.0325,-0.031,-0.0262,-0.0234,-0.0195,-0.0157,-0.0172,-0.0151,-0.0174,-0.0158,-0.0156,-0.0182,-0.0182,-0.0183,-0.0183,-0.0183,-0.039,-0.0403,-0.0391,-0.04,-0.0369,-0.0357,-0.0288,-0.0261,-0.0207,-0.021,-0.0171,-0.0114,-0.0158,-0.0187,-0.0186,-0.0186,-0.0185,-0.0185,-0.0185,-0.0436,-0.0441,-0.0451,-0.0471,-0.0463,-0.0418,-0.0347,-0.0314,-0.0255,-0.0237,-0.0157,-0.0156,-0.0145,-0.0205,-0.0205,-0.0205,-0.0205,-0.0205,-0.0204,-0.0477,-0.0486,-0.052,-0.054,-0.0522,-0.0477,-0.0384,-0.0294,-0.0213,-0.0197,-0.0196,-0.018,-0.0179,-0.0145,-0.0202,-0.0203,-0.0203,-0.0203,-0.0203,-0.052,-0.0537,-0.0583,-0.0579,-0.0513,-0.045,-0.0358,-0.0226,-0.0138,-0.0099,-0.0144,-0.0146,-0.0108,-0.0108,-0.0073,-0.0107,-0.0107,-0.0107,-0.0107,-0.0552,-0.0566,-0.0607,-0.0569,-0.0477,-0.0408,-0.0263,-0.008,-0.0007,0.0078,0.007,0.0067,0.0058,0.0106,0.0101,0.0141,0.0164,0.0164,0.0165,-0.058,-0.0595,-0.0609,-0.0577,-0.0445,-0.0345,-0.0262,0.008,0.038,0.0181,0.0177,-0.01,-0.0129,-0.0134,-0.0078,-0.0079,-0.0021,0,0]}],[{"header":{"parameterUnit":"m.s-1","parameterCategory":2,"la1":30.2992,"la2":30.254,"lo1":-89.0895,"lo2":-89.0443,"dy":0.0025,"dx":0.0025,"nx":19,"ny":19,"refTime":"2026-05-14T09:00:00:Z","depth":"4","parameterNumber":2,"parameterNumberName":"U-component_of_CURRENTS"},"data":[0,0,0,-0.0635,-0.0637,-0.0752,-0.0752,-0.1073,-0.1076,0,0,0,0,0,0,0,0,0,0,0,-0.0585,-0.0585,-0.0635,-0.0637,-0.0752,-0.0752,-0.1072,-0.1076,0,0,0,0,0,0,0,0,0,0,0,-0.0585,-0.0585,-0.0586,-0.0638,-0.0751,-0.0752,-0.1071,-0.0944,0,0,0,0,0,0,0,0,0,0,-0.0813,-0.0756,-0.0585,-0.0586,-0.0638,-0.0751,-0.0752,-0.0937,-0.0953,-0.1067,0,-0.1066,0,-0.1084,-0.11,-0.1101,0,0,0,-0.0649,-0.0742,-0.0756,-0.0586,-0.0639,-0.0751,-0.0703,-0.0944,-0.0962,-0.1089,-0.107,-0.1082,-0.109,-0.1102,-0.1104,-0.1337,-0.1337,0,0,-0.0643,-0.0636,-0.0742,-0.0766,-0.0651,-0.07,-0.0707,-0.0953,-0.0981,-0.1071,-0.1089,-0.1095,-0.1105,-0.1108,-0.1337,-0.1337,0,0,0,-0.0617,-0.0632,-0.0636,-0.0753,-0.0764,-0.0703,-0.0711,-0.0969,-0.0964,-0.1092,-0.1099,-0.1107,-0.1111,-0.1337,-0.1337,-0.1311,0,0,0,-0.0613,-0.0616,-0.0632,-0.0634,-0.0757,-0.085,-0.0722,-0.0946,-0.0975,-0.1097,-0.1107,-0.1115,-0.1338,-0.1337,-0.1312,-0.1266,0,0,0,-0.0583,-0.0614,-0.0615,-0.0633,-0.0676,-0.0845,-0.0855,-0.0952,-0.098,-0.1102,-0.1116,-0.1338,-0.1337,-0.1313,-0.1269,-0.1197,0,0,0,-0.059,-0.0586,-0.0615,-0.0631,-0.0674,-0.0732,-0.0853,-0.0943,-0.1036,-0.1109,-0.1338,-0.1337,-0.1314,-0.127,-0.12,-0.1103,0,0,0,-0.0582,-0.0586,-0.0593,-0.0621,-0.0657,-0.0718,-0.0791,-0.0968,-0.1072,-0.1273,-0.1277,-0.1312,-0.1269,-0.1198,-0.1081,0,0,0,0,-0.0589,-0.0593,-0.0608,-0.0644,-0.069,-0.075,-0.089,-0.0945,-0.1117,-0.1123,-0.1311,-0.1283,-0.124,-0.1192,-0.1335,-0.1335,-0.1335,-0.1335,-0.1335,-0.0579,-0.06,-0.0612,-0.0646,-0.0711,-0.0801,-0.0848,-0.0961,-0.1099,-0.1146,-0.1263,-0.1188,-0.114,-0.1283,-0.1283,-0.1283,-0.1283,-0.1283,-0.1283,-0.0566,-0.0565,-0.0624,-0.0654,-0.0718,-0.0821,-0.0909,-0.0973,-0.1076,-0.1184,-0.1145,-0.117,-0.128,-0.128,-0.1281,-0.1281,-0.1281,-0.1282,-0.1282,-0.0553,-0.0547,-0.0583,-0.0646,-0.0752,-0.0862,-0.0864,-0.0955,-0.1048,-0.105,-0.1017,-0.1141,-0.1138,-0.1074,-0.1073,-0.1073,-0.1073,-0.1072,-0.1072,-0.0522,-0.0542,-0.0536,-0.0643,-0.0699,-0.0782,-0.0859,-0.0843,-0.0939,-0.0939,-0.1067,-0.1116,-0.1123,-0.1125,-0.1064,-0.1065,-0.1066,-0.1067,-0.1068,-0.049,-0.0492,-0.0489,-0.0505,-0.0608,-0.0662,-0.0718,-0.0699,-0.0679,-0.0665,-0.0848,-0.0861,-0.0844,-0.0856,-0.0849,-0.0703,-0.0701,-0.07,0,-0.0447,-0.0449,-0.0419,-0.0424,-0.0462,-0.0575,-0.0519,-0.0548,-0.0609,-0.0621,-0.0694,-0.0904,-0.0913,-0.0899,-0.0908,-0.09,0,0,0,-0.0408,-0.0409,-0.0383,-0.0398,-0.0432,-0.0481,-0.0527,-0.0515,-0.0616,-0.0538,-0.0661,-0.0671,-0.087,-0.1041,-0.1043,-0.1052,-0.1053,0,0]},{"header":{"parameterUnit":"m.s-1","parameterCategory":2,"la1":30.2992,"la2":30.254,"lo1":-89.0895,"lo2":-89.0443,"dy":0.0025,"dx":0.0025,"nx":19,"ny":19,"refTime":"2026-05-14T09:00:00:Z","depth":"4","parameterNumber":3,"parameterNumberName":"V-component_of_CURRENTS"},"data":[0,0,0,-0.0281,-0.0283,-0.0386,-0.0386,-0.0459,-0.046,0,0,0,0,0,0,0,0,0,0,0,-0.0244,-0.0244,-0.0281,-0.0283,-0.0386,-0.0386,-0.0459,-0.046,0,0,0,0,0,0,0,0,0,0,0,-0.0243,-0.0244,-0.0245,-0.0284,-0.0386,-0.0386,-0.0459,-0.0396,0,0,0,0,0,0,0,0,0,0,-0.0304,-0.0274,-0.0244,-0.0245,-0.0284,-0.0386,-0.0386,-0.0394,-0.04,-0.0397,0,-0.0416,0,-0.044,-0.0464,-0.0464,0,0,0,-0.0283,-0.0268,-0.0301,-0.0245,-0.0285,-0.0386,-0.0339,-0.0398,-0.0405,-0.0405,-0.0418,-0.0421,-0.0442,-0.0464,-0.0464,-0.0485,-0.0485,0,0,-0.0277,-0.0256,-0.0296,-0.0306,-0.0316,-0.0336,-0.0343,-0.0403,-0.0407,-0.0418,-0.0423,-0.0443,-0.0464,-0.0465,-0.0485,-0.0485,0,0,0,-0.0261,-0.0252,-0.0285,-0.0302,-0.0326,-0.0339,-0.0347,-0.0404,-0.0417,-0.0424,-0.0444,-0.0465,-0.0465,-0.0486,-0.0485,-0.0498,0,0,0,-0.0258,-0.0244,-0.0282,-0.027,-0.0325,-0.0374,-0.0347,-0.0413,-0.0421,-0.0443,-0.0465,-0.0466,-0.0486,-0.0486,-0.0498,-0.0513,0,0,0,-0.0238,-0.0241,-0.0256,-0.0269,-0.0315,-0.0373,-0.039,-0.0415,-0.0432,-0.0464,-0.0466,-0.0486,-0.0486,-0.0498,-0.0513,-0.0482,0,0,0,-0.021,-0.025,-0.0255,-0.0315,-0.0314,-0.0406,-0.039,-0.0456,-0.049,-0.0465,-0.0486,-0.0485,-0.0498,-0.0513,-0.0483,-0.0334,0,0,0,-0.0248,-0.0253,-0.0293,-0.0301,-0.038,-0.0392,-0.0467,-0.0498,-0.0472,-0.0462,-0.0464,-0.0498,-0.0513,-0.0482,-0.031,0,0,0,0,-0.0298,-0.0322,-0.0349,-0.0398,-0.0453,-0.0481,-0.0526,-0.0519,-0.0497,-0.0489,-0.0486,-0.0495,-0.0475,-0.0388,-0.0483,-0.0483,-0.0483,-0.0484,-0.0484,-0.0307,-0.0352,-0.041,-0.0463,-0.0513,-0.0556,-0.0573,-0.0558,-0.0541,-0.0512,-0.0495,-0.047,-0.0379,-0.0479,-0.0479,-0.0479,-0.0479,-0.0479,-0.0479,-0.0355,-0.0394,-0.0439,-0.0509,-0.054,-0.06,-0.0605,-0.0583,-0.0533,-0.0508,-0.0486,-0.0397,-0.048,-0.048,-0.0479,-0.0479,-0.0479,-0.0479,-0.0479,-0.0352,-0.0377,-0.0421,-0.0504,-0.0563,-0.0608,-0.0581,-0.0566,-0.0536,-0.0515,-0.0367,-0.0468,-0.0476,-0.0469,-0.0469,-0.0469,-0.0469,-0.0468,-0.0468,-0.0327,-0.0373,-0.0412,-0.05,-0.0542,-0.0561,-0.0546,-0.0497,-0.0466,-0.0366,-0.0488,-0.0466,-0.0467,-0.0475,-0.0467,-0.0468,-0.0468,-0.0468,-0.0468,-0.0344,-0.0345,-0.0403,-0.0438,-0.0505,-0.0499,-0.0489,-0.0345,-0.0277,-0.0209,-0.028,-0.029,-0.0267,-0.0272,-0.0273,-0.0206,-0.0204,-0.0202,0,-0.0333,-0.0343,-0.0393,-0.0426,-0.0427,-0.0456,-0.0279,-0.0223,-0.0201,-0.019,-0.0334,-0.0425,-0.0427,-0.0414,-0.0415,-0.0421,0,0,0,-0.0339,-0.0352,-0.0375,-0.041,-0.0407,-0.0283,-0.0232,-0.0162,-0.0206,-0.0068,-0.0153,-0.0166,-0.0345,-0.0464,-0.0452,-0.0453,-0.0464,0,0]}]]